Regional Weather Roundup
Issued by NWS Wilmington, NC

Home | Current Version | Previous Version | Text Only | Print | Product List | Glossary On
Versions: 1 2 3 4 5 6 7 8 9 10 11 12 13 14 15 16 17 18 19 20 21 22 23 24 25 26 27 28 29 30 31 32 33 34 35 36 37 38 39 40 41 42 43 44 45 46 47 48 49
000
ASUS42 KILM 062013
RWRILM
RWRILM
REGIONAL HOURLY WEATHER ROUNDUP
NATIONAL WEATHER SERVICE WILMINGTON NC
300 PM EST SAT FEB 06 2016

NOTE: "FAIR" INDICATES FEW OR NO CLOUDS BELOW 12,000 FEET WITH NO
SIGNIFICANT WEATHER AND/OR OBSTRUCTIONS TO VISIBILITY.

...............WFO WILMINGTON COUNTY WARNING AREA...............

......COASTAL NC AND SC COUNTIES......

CITY           SKY/WX    TMP DP  RH WIND       PRES   REMARKS
WILMINGTON     CLOUDY    52  26  36 N8        30.28F
N MYRTLE BEACH CLOUDY    51  28  41 NE9       30.27F
MYRTLE BEACH   PTSUNNY   52  27  37 NE7       30.29F

......INLAND NC AND SC COUNTIES.......

CITY           SKY/WX    TMP DP  RH WIND       PRES   REMARKS
LUMBERTON      SUNNY     51  23  33 N9        30.29F
ELIZABETHTOWN  PTSUNNY   50  20  31 NE3       30.30F
WHITEVILLE     CLOUDY    50  22  33 CALM      30.28F
FLORENCE       PTSUNNY   50  25  37 NE12      30.28F
DARLINGTON     SUNNY     52  25  35 NE10      30.29F
KINGSTREE      CLOUDY    50  21  32 N5        30.28S
HARTSVILLE     FAIR      52  21  30 N10       30.27F
BENNETTSVILLE  FAIR      54  27  35 NE8       30.28F
CONWAY         CLOUDY    50  28  43 N7        30.28F
GEORGETOWN     CLOUDY    48  32  53 E7        30.27F
MARION         FAIR      50  23  34 NE8       30.29F

....................REST OF NORTH CAROLINA......................

.........EASTERN NC.........

CITY           SKY/WX    TMP DP  RH WIND       PRES   REMARKS
CAPE HATTERAS  CLOUDY    47  35  63 NE8G20    30.31F
JACKSONVILLE   CLOUDY    48  21  34 N6        30.31S
MOREHEAD CITY  CLOUDY    45  31  58 NE10      30.30F
KENANSVILLE      N/A     47  20  33 CALM      30.32F
NEW BERN       PTSUNNY   49  27  42 NE9       30.31F
ELIZABETH CITY CLOUDY    45  26  47 N7        30.34F

.........CENTRAL NC.........

CITY           SKY/WX    TMP DP  RH WIND       PRES   REMARKS
RALEIGH DURHAM MOSUNNY   47  17  30 CALM      30.32F
ROCKY MOUNT    SUNNY     47  20  34 NE7       30.33F
ROANOKE RAPIDS NOT AVBL
FAYETTEVILLE   SUNNY     50  20  30 E7        30.29F
HOFFMAN        SUNNY     49  21  33 NE9       30.29F

.........WESTERN NC.........

CITY           SKY/WX    TMP DP  RH WIND       PRES   REMARKS
CHARLOTTE      PTSUNNY   49  13  23 NW6       30.30F
GREENSBORO     MOSUNNY   47  11  23 CALM      30.29F
HICKORY        NOT AVBL
BOONE          NOT AVBL
ASHEVILLE      NOT AVBL

.....................REST OF SOUTH CAROLINA.....................

.........EASTERN SC.........

CITY           SKY/WX    TMP DP  RH WIND       PRES   REMARKS
CHARLESTON     CLOUDY    53  30  41 NE12      30.24F
BEAUFORT MCAS  CLOUDY    53  31  42 NE7       30.24F
HILTON HEAD    CLOUDY    50  37  62 NE9       30.24F

.........CENTRAL SC.........

CITY           SKY/WX    TMP DP  RH WIND       PRES   REMARKS
COLUMBIA       CLOUDY    52  21  29 E9        30.25F
ORANGEBURG     CLOUDY    49  23  36 NE7       30.26F
SUMTER SHAW    CLOUDY    49  24  37 E7        30.27S

.........WESTERN SC.........

CITY           SKY/WX    TMP DP  RH WIND       PRES   REMARKS
GREENVILLE     NOT AVBL
ROCK HILL      SUNNY     49  18  29 N7        30.28F
ANDERSON       SUNNY     50  15  24 MISG      30.26F
CLEMSON        NOT AVBL
GREENWOOD      SUNNY     51  17  26 N8        30.27F


...................COASTAL AND OFFSHORE REPORTS..................

................LOCAL PIERS AND NC RESERVE................


STATION/POSITION TIME  SKY/WX   TEMP    WIND        PRES    VSBY
                                AIR SEA DIR/SP/G
                 (UTC)          (F)     (DEG/KT/KT) (MB)    (MI)
JOHNY MRCER PIER 1900            47 54   50/ 11/ 13 1024.7F
NC RESRV MASNBRO NOT AVBL
OCEAN CREST PIER NOT AVBL
SPRINGMAID  PIER 1900            48 52   20/ 10/ 12 1025.0F


................COASTAL AND OFFSHORE BUOYS................


STATION/POSITION TIME  SKY/WX   TEMP    WIND        PRES    VSBY
                                AIR SEA DIR/SP/G
                 (UTC)          (F)     (DEG/KT/KT) (MB)    (MI)
DIMNDSHOAL 41025 1950            51 72   20/ 17/ 23 1025.6F
WVE H/P(F/S)=  6/12 SWL H/P/D(F/S/D)=  5/ 80/12

CAPE LOOKOUT     NOT AVBL
ONSLOW BAY 41036 NOT AVBL
ONSLOW BAY 41064 1908            49 65              1024.2F
ONSLOW BAY 41159 1925               65                N/A
WVE H/P(F/S)=  5/10 SWL H/P/D(F/S/D)=  2/100/11

5SE WRITBC 41038 1908            47 54   50/ 14/ 17 1025.8F
MASNBO INL 41110 1906               54                N/A
WVE H/P(F/S)=  4/11 SWL H/P/D(F/S/D)=  2/120/11

WILM HARBR 41108 1926               56                N/A
WVE H/P(F/S)=  4/ 4 SWL H/P/D(F/S/D)=  2/120/11

27SE WRITB 41037 NOT AVBL
FRYING PAN 41013 1900            52 68   30/ 19/ 23 1024.7F
SUNST NRSH 41024 NOT AVBL
CAPRS NRSH 41029 1908            49      60/ 19/ 23 1023.7F
EDISTO     41004 1950            55 64   40/ 23/ 27 1021.9F
WVE H/P(F/S)=  7/ 6 SWL H/P/D(F/S/D)=  3/ 9



..........OFFSHORE BUOYS BEYOND 100 NM OFFSHORE...........
.....IN A TRIANGLE---HAT TO BERMUDA TO BAHAMAS TO HAT.....


STATION/POSITION TIME  SKY/WX   TEMP    WIND        PRES    VSBY
                                AIR SEA DIR/SP/G
                 (UTC)          (F)     (DEG/KT/KT) (MB)    (MI)
150E HAT   41001 1900            58 72   30/  6/ 10 1025.0F
W BERMUDA  41048 1950            66 70   70/ 10/ 14 1021.3F
WVE H/P(F/S)= 11/11 SWL H/P/D(F/S/D)= 11/340/11

ATLANTIC S 41049 1950            75 74  150/ 10/ 12 1019.9R
WVE H/P(F/S)=  7/10 SWL H/P/D(F/S/D)=  7/100/10

E BAHAMAS  41046 1950            78 80  120/ 10/ 12 1017.0F
WVE H/P(F/S)=  7/10 SWL H/P/D(F/S/D)=  7/ 60/10

NE BAHAMAS 41047 1950            74 76   90/ 16/ 17 1017.8F
WVE H/P(F/S)= 10/11 SWL H/P/D(F/S/D)=  8/360/11

120E CANVRL41010 1920            69 74              1019.4F

END



USA.gov is the U.S. government's official web portal to all federal, state and local government web resources and services.